Weather History for Drummond Island, MI

Change the Weather History Date:

Wednesday, March 6, 2013

  Actual Average (KCIU) Record (KCIU)
Temperature  
Mean Temperature 32 °F -  
Max Temperature 37 °F 31 °F 45 °F (1983)
Min Temperature 27 °F 8 °F -18 °F (2007)
Degree Days  
Heating Degree Days 33    
Moisture  
Dew Point 26 °F    
Average Humidity 82    
Maximum Humidity 99    
Minimum Humidity 68    
Precipitation  
Precipitation 0.00 in - - ()
Sea Level Pressure  
Sea Level Pressure 30.16 in    
Wind  
Wind Speed 5 mph (NNE)    
Max Wind Speed 9 mph    
Max Gust Speed 16 mph    
Visibility 9 miles    
Events Snow    
Averages and records for this station are not official NWS values.
T = Trace of Precipitation, MM = Missing Value Source: NWS Daily Summary

Daily Weather History Graph

Daily Weather History Graph

Search for Another Location

Airport:

Trip Planner

Search our weather history database for the weather conditions in past years. The results will help you decide how hot, cold, wet, or windy it might be!

Date:

Astronomy

Mar. 06, 2013 Rise Set
Actual Time 7:04 AM EST 6:28 PM EST
Civil Twilight 6:34 AM EST 6:58 PM EST
Nautical Twilight 5:59 AM EST 7:33 PM EST
Astronomical Twilight 5:24 AM EST 8:08 PM EST
Moon 3:26 AM EST (3/6) 12:56 PM EST (3/6)
Length of Visible Light 12h 24m
Length of Day
11h 24m
Waning Crescent, 30% of the Moon is Illuminated
Mar 6
Waning Crescent
Mar 11
New
Mar 19
First Quarter
Mar 27
Full
Apr 3
Last Quarter

Hourly Weather History & Observations

Time (EST) Temp. Windchill Dew Point Humidity Pressure Visibility Wind Dir Wind Speed Gust Speed Precip Events Conditions
12:16 AM 29.1 °F 20.6 °F 23.4 °F 79% 30.08 in 10.0 mi NE 9.2 mph - N/A   Overcast
12:37 AM 29.1 °F 21.3 °F 23.4 °F 79% 30.08 in 10.0 mi NE 8.1 mph 16.1 mph N/A   Overcast
12:56 AM 28.9 °F 21.9 °F 23.5 °F 80% 30.08 in 10.0 mi NNE 6.9 mph 16.1 mph N/A   Overcast
1:16 AM 28.9 °F 21.9 °F 23.5 °F 80% 30.08 in 10.0 mi NNE 6.9 mph - N/A   Overcast
1:37 AM 28.8 °F 21.7 °F 23.5 °F 81% 30.09 in 10.0 mi NNE 6.9 mph - N/A   Overcast
1:56 AM 28.8 °F 22.6 °F 23.5 °F 81% 30.09 in 10.0 mi NNE 5.8 mph - N/A   Overcast
2:16 AM 28.6 °F 23.5 °F 23.7 °F 82% 30.10 in 10.0 mi North 4.6 mph - N/A   Overcast
2:37 AM 28.0 °F 21.7 °F 23.2 °F 82% 30.10 in 10.0 mi NNE 5.8 mph - N/A   Overcast
2:56 AM 27.9 °F 21.5 °F 23.4 °F 83% 30.10 in 10.0 mi NNE 5.8 mph - N/A   Overcast
3:16 AM 27.5 °F 22.2 °F 23.0 °F 83% 30.10 in 10.0 mi NNE 4.6 mph - N/A   Overcast
3:36 AM 27.5 °F 22.2 °F 23.2 °F 84% 30.10 in 10.0 mi NNE 4.6 mph - N/A   Overcast
3:56 AM 27.9 °F 21.5 °F 23.5 °F 84% 30.10 in 10.0 mi NNE 5.8 mph - N/A   Overcast
4:16 AM 27.9 °F 21.5 °F 23.5 °F 84% 30.11 in 10.0 mi NNE 5.8 mph - N/A   Overcast
4:36 AM 27.9 °F 22.6 °F 23.5 °F 84% 30.11 in 10.0 mi NNE 4.6 mph - N/A   Overcast
4:56 AM 27.9 °F 22.6 °F 23.5 °F 84% 30.12 in 10.0 mi NNE 4.6 mph - N/A   Overcast
5:17 AM 28.0 °F 24.2 °F 23.5 °F 83% 30.12 in 10.0 mi NNE 3.5 mph - N/A   Overcast
5:36 AM 28.0 °F 22.8 °F 23.7 °F 84% 30.13 in 10.0 mi NNE 4.6 mph - N/A   Overcast
5:56 AM 28.2 °F 23.1 °F 23.9 °F 84% 30.14 in 10.0 mi NNE 4.6 mph - N/A   Overcast
6:17 AM 28.4 °F 22.2 °F 23.9 °F 83% 30.14 in 10.0 mi NNE 5.8 mph - N/A   Overcast
6:36 AM 28.4 °F 23.3 °F 23.7 °F 83% 30.15 in 10.0 mi North 4.6 mph - N/A   Overcast
6:56 AM 28.4 °F 23.3 °F 23.9 °F 83% 30.16 in 10.0 mi NNE 4.6 mph - N/A   Overcast
7:17 AM 27.9 °F 22.6 °F 23.9 °F 85% 30.17 in 10.0 mi North 4.6 mph - N/A   Overcast
7:36 AM 27.5 °F 23.6 °F 23.9 °F 86% 30.17 in 10.0 mi North 3.5 mph - N/A   Overcast
7:56 AM 27.9 °F 22.6 °F 23.9 °F 85% 30.18 in 10.0 mi North 4.6 mph - N/A   Overcast
8:16 AM 27.7 °F 22.4 °F 23.7 °F 85% 30.18 in 10.0 mi North 4.6 mph - N/A   Overcast
8:36 AM 28.4 °F 24.6 °F 23.9 °F 83% 30.19 in 10.0 mi North 3.5 mph - N/A   Overcast
8:56 AM 28.9 °F 25.2 °F 24.3 °F 83% 30.19 in 10.0 mi NNE 3.5 mph - N/A   Overcast
9:16 AM 30.2 °F 23.4 °F 24.6 °F 80% 30.19 in 10.0 mi ENE 6.9 mph - N/A   Overcast
9:36 AM 31.3 °F 24.7 °F 24.8 °F 77% 30.19 in 10.0 mi ENE 6.9 mph - N/A   Overcast
9:57 AM 31.3 °F 24.7 °F 25.2 °F 78% 30.18 in 10.0 mi East 6.9 mph - N/A   Overcast
10:16 AM 32.4 °F 27.9 °F 26.2 °F 78% 30.18 in 10.0 mi East 4.6 mph - N/A   Mostly Cloudy
10:36 AM 33.4 °F 26.6 °F 26.2 °F 75% 30.18 in 10.0 mi East 8.1 mph - N/A   Clear
10:57 AM 33.8 °F 28.6 °F 26.8 °F 75% 30.19 in 10.0 mi East 5.8 mph - N/A   Clear
11:16 AM 33.8 °F 28.6 °F 27.3 °F 77% 30.19 in 10.0 mi East 5.8 mph - N/A   Clear
11:36 AM 34.7 °F 29.6 °F 27.5 °F 75% 30.19 in 10.0 mi East 5.8 mph - N/A   Clear
11:57 AM 34.7 °F 29.6 °F 27.5 °F 75% 30.19 in 10.0 mi ENE 5.8 mph - N/A   Clear
12:16 PM 35.8 °F 29.4 °F 27.5 °F 72% 30.20 in 10.0 mi East 8.1 mph - N/A   Clear
12:36 PM 36.1 °F 32.3 °F 27.5 °F 71% 30.20 in 10.0 mi East 4.6 mph - N/A   Scattered Clouds
12:56 PM 36.5 °F 32.7 °F 27.7 °F 70% 30.19 in 10.0 mi East 4.6 mph - N/A   Scattered Clouds
1:16 PM 36.5 °F - 27.9 °F 71% 30.18 in 10.0 mi Calm Calm - N/A   Scattered Clouds
1:36 PM 37.0 °F - 27.7 °F 69% 30.18 in 10.0 mi Calm Calm - N/A   Scattered Clouds
1:56 PM 37.4 °F - 27.7 °F 68% 30.17 in 10.0 mi Calm Calm - N/A   Mostly Cloudy
2:16 PM 37.0 °F - 27.5 °F 68% 30.17 in 10.0 mi Calm Calm - N/A   Mostly Cloudy
2:37 PM 37.0 °F 33.3 °F 27.7 °F 69% 30.17 in 10.0 mi SE 4.6 mph - N/A   Mostly Cloudy
2:56 PM 37.0 °F - 28.2 °F 70% 30.16 in 10.0 mi Calm Calm - N/A   Mostly Cloudy
3:16 PM 37.0 °F 34.5 °F 28.2 °F 70% 30.16 in 10.0 mi SW 3.5 mph - N/A   Mostly Cloudy
3:37 PM 37.4 °F - 28.2 °F 69% 30.17 in 10.0 mi Calm Calm - N/A   Overcast
3:56 PM 36.5 °F 31.8 °F 27.5 °F 70% 30.17 in 10.0 mi SW 5.8 mph - N/A   Mostly Cloudy
4:16 PM 36.0 °F 33.3 °F 27.3 °F 71% 30.17 in 10.0 mi SW 3.5 mph - N/A   Mostly Cloudy
4:36 PM 35.1 °F - 27.3 °F 73% 30.18 in 10.0 mi Calm Calm - N/A   Overcast
5:16 PM 34.9 °F - 28.0 °F 76% 30.17 in 10.0 mi Calm Calm - N/A   Overcast
5:36 PM 34.2 °F - 28.0 °F 78% 30.18 in 10.0 mi Calm Calm - N/A   Overcast
5:56 PM 34.2 °F - 28.2 °F 79% 30.18 in 10.0 mi Calm Calm - N/A   Overcast
6:16 PM 34.0 °F - 28.4 °F 80% 30.18 in 10.0 mi Calm Calm - N/A   Overcast
6:36 PM 32.9 °F - 28.4 °F 84% 30.18 in 10.0 mi Calm Calm - N/A   Overcast
6:57 PM 32.4 °F - 28.8 °F 87% 30.18 in 10.0 mi Calm Calm - N/A   Overcast
7:16 PM 32.2 °F - 28.8 °F 87% 30.18 in 10.0 mi Calm Calm - N/A   Overcast
7:36 PM 32.0 °F - 28.6 °F 87% 30.19 in 10.0 mi Calm Calm - N/A   Overcast
7:57 PM 31.5 °F 28.1 °F 28.2 °F 88% 30.19 in 10.0 mi West 3.5 mph - N/A   Scattered Clouds
8:16 PM 31.1 °F 26.4 °F 28.4 °F 90% 30.19 in 10.0 mi West 4.6 mph - N/A   Mostly Cloudy
8:36 PM 30.7 °F 27.3 °F 28.6 °F 92% 30.19 in 7.0 mi WNW 3.5 mph - N/A   Overcast
8:56 PM 30.6 °F 27.1 °F 29.3 °F 95% 30.19 in 7.0 mi WNW 3.5 mph - N/A Snow Light Snow
9:36 PM 30.2 °F - 29.7 °F 98% 30.20 in 3.0 mi Calm Calm - N/A Snow Light Snow
9:56 PM 30.2 °F 25.4 °F 29.7 °F 98% 30.20 in 4.0 mi WNW 4.6 mph - N/A Snow Light Snow
10:17 PM 30.0 °F 24.1 °F 29.3 °F 97% 30.20 in 2.5 mi WNW 5.8 mph - N/A Snow Light Snow
10:36 PM 29.8 °F 26.3 °F 29.3 °F 98% 30.20 in 2.5 mi WNW 3.5 mph - N/A Snow Light Snow
10:56 PM 29.3 °F 23.2 °F 29.1 °F 99% 30.20 in 2.0 mi NW 5.8 mph - N/A Snow Light Snow
11:17 PM 29.3 °F 25.6 °F 28.9 °F 99% 30.20 in 2.0 mi NW 3.5 mph - N/A Snow Light Snow
11:36 PM 29.3 °F 25.6 °F 28.9 °F 99% 30.20 in 2.0 mi NW 3.5 mph - N/A Snow Light Snow
11:56 PM 28.9 °F 22.8 °F 28.4 °F 98% 30.20 in 2.5 mi NW 5.8 mph - N/A Snow Light Snow